DAAVDAAE

Guest
Details From DAAV - JIJEL
To DAAE - SOUMMAM
Flight Number -
Tags generated
Created
Modified
Stats Distance 40 nm / 74 km
Max Altitude 400 ft / 122 m
Waypoints 3
Social Downloads 6
Likes 0
Share VATSIM

Download

Looking for another format? Having issues loading an existing format? Contact us
Advertisement - Login to hide

Notes

Basic altitude profile: - Ascent Rate: 2500ft/min - Ascent Speed: 250kts - Cruise Altitude: 7500ft - Cruise Speed: 420kts - Descent Rate: 1500ft/min - Descent Speed: 250kts Options: - Use NATs: yes - Use PACOTS: yes - Use low airways: no - Use high airways: yes

Route

DAAV JIL DAAE

ID Type Via Altitude Latitude Longitude Leg Dist Tot Dist Heading (true) Name
O DAAV APT - 0 ft / 0 m 36.79513˚ 5.87361˚ - 0 nm - JIJEL
JIL VOR - 400 ft / 122 m 36.77667˚ 5.87722˚ 1 nm 1 nm 171° / 171° JIJEL VOR-DME
O DAAE APT - 0 ft / 0 m 36.71181˚ 5.06986˚ 39 nm 40 nm 265° / 264° SOUMMAM

Altitude Profile

Advertisement - Login to hide

DAAV

Details ICAO DAAV (GJL)
Name JIJEL
Region Algeria
Timezone Africa/Algiers (UTC+1.0)
Stats Elevation 36 ft / 11 m (AMSL)
Location 36.795135° 5.873607°
Runways 1
Magnetic Variation 1.650° E

METAR

DAAV 211500Z 31005KT 9999 FEW020 21/15 Q1011

Decode

TAF

TAF TAF DAAV 211100Z 2112/2212 32010KT 9999 SCT013 SCT090 PROB40 TEMPO 2114/2118 FEW023TCU BECMG 2122/2124 06008KT PROB30 TEMPO 2200/2206 2000 BR BKN010 PROB40 TEMPO 2206/2212 4000 -TSRA FEW020CB BKN020

Decode

Departure Runways

ID Width Length Bearing (true) Bearing (mag) Surface Threshold Offset Overrun Length
17 148 ft / 45 m 7,904 ft / 2,409 m 171.05° 169.40° Asphalt 0 ft / 0 m 0 ft / 0 m
35 148 ft / 45 m 7,904 ft / 2,409 m 351.05° 349.40° Asphalt 0 ft / 0 m 0 ft / 0 m

DAAE

Details ICAO DAAE (BJA)
Name SOUMMAM
Region Algeria
Timezone Africa/Algiers (UTC+1.0)
Stats Elevation 20 ft / 6 m (AMSL)
Location 36.711805° 5.069862°
Runways 1
Magnetic Variation 1.488° E

METAR

DAAE 211500Z 07008KT 9999 SCT020 SCT233 21/15 Q1011

Decode

TAF

TAF DAAE 211100Z 2112/2212 34011KT 9999 FEW026TCU SCT090 PROB40 TEMPO 2113/2118 5000 -RA BECMG 2122/2124 14008KT PROB30 TEMPO 2200/2208 2000 BR BKN010 PROB40 TEMPO 2206/2212 4000 -TSRA FEW020CB BKN020

Decode

Destination Runways

ID Width Length Bearing (true) Bearing (mag) Surface Threshold Offset Overrun Length
08 148 ft / 45 m 7,831 ft / 2,387 m 80.31° 78.82° Asphalt 0 ft / 0 m 204 ft / 62 m
26 148 ft / 45 m 7,831 ft / 2,387 m 260.32° 258.83° Asphalt 0 ft / 0 m 113 ft / 34 m

Approach Navaids

Runway Type Ident Frequency Range Bearing (true) Bearing (mag) Slope Elevation
26 Localiser BJ 110.50 MHz 18 nm / 33 km 261.39° 259.91° - 20 ft / 6 m (AMSL)
26 DME BJ 110.50 MHz 18 nm / 33 km - - - 20 ft / 6 m (AMSL)